DW4691 Weather Reports


Display with metric or nautical units.
time (UTC)temp
F
wind
direction
speed
MPH
gust
MPH
rain 1hr
in
rain 24hr
in
rain mn
in
humidity
%
barometer
mb
20260505164551 79 0 0.0 7.0 0.00 0.00 0.00 84 1009.4
20260505163051 79 0 0.0 3.0 0.00 0.00 0.00 84 1009.4
20260505161548 78 0 0.0 1.0 0.00 0.00 0.00 85 1009.3
20260505153043 77 0 0.0 8.0 0.00 0.00 0.00 85 1009.0
20260505151538 77 141 0.0 7.0 0.00 0.00 0.00 85 1009.0
20260505124553 72 0 0.0 0.0 0.00 0.00 0.00 90 1008.5
20260505123042 72 0 0.0 0.0 0.00 0.00 0.00 90 1008.2
20260505121546 71 0 0.0 2.0 0.00 0.00 0.00 90 1008.5
20260505120046 71 0 0.0 0.0 0.00 0.00 0.00 90 1008.3
20260505114544 71 0 0.0 2.0 0.00 0.00 0.00 90 1008.0
20260505113044 71 0 0.0 3.0 0.00 0.00 0.00 90 1008.2
20260505111543 71 0 0.0 0.0 0.00 0.00 0.00 90 1008.3
20260505101550 71 0 0.0 0.0 0.00 0.00 0.00 89 1008.3
20260505100045 70 0 0.0 0.0 0.00 0.00 0.00 89 1008.3
20260505094547 70 0 0.0 0.0 0.00 0.00 0.00 89 1008.5
20260505093057 70 0 0.0 0.0 0.00 0.00 0.00 89 1008.5
20260505091549 70 0 0.0 0.0 0.00 0.00 0.00 89 1008.6
20260505090048 70 0 0.0 0.0 0.00 0.00 0.00 88 1008.6
20260505084553 70 0 0.0 0.0 0.00 0.00 0.00 88 1008.7
20260505083055 71 0 0.0 2.0 0.00 0.00 0.00 87 1008.7
20260505081556 71 0 0.0 1.0 0.00 0.00 0.00 87 1009.1
20260505080048 71 0 0.0 1.0 0.00 0.00 0.00 87 1009.1
20260505074549 71 0 0.0 0.0 0.00 0.00 0.00 87 1009.3
20260505073046 71 0 0.0 1.0 0.00 0.00 0.00 86 1009.3
20260505071547 71 0 0.0 3.0 0.00 0.00 0.00 86 1009.5
20260505070041 71 0 0.0 1.0 0.00 0.00 0.00 85 1009.7
20260505064546 71 0 0.0 1.0 0.00 0.00 0.00 85 1009.9
20260505063047 71 0 0.0 2.0 0.00 0.00 0.00 85 1009.8
20260505061552 71 0 0.0 3.0 0.00 0.00 0.00 84 1010.0
20260505060049 71 148 0.0 3.0 0.00 0.00 0.00 84 1010.2
20260505054555 71 0 0.0 5.0 0.00 0.00 0.00 84 1010.2
20260505053044 71 0 0.0 3.0 0.00 0.00 0.00 83 1010.4
20260505051541 71 0 0.0 1.0 0.00 0.00 0.00 83 1010.5
20260505041548 72 0 0.0 3.0 0.00 0.00 0.00 80 1010.6
20260505040044 73 0 0.0 9.0 0.00 0.00 0.00 79 1010.5
20260505034551 73 134 0.0 2.0 0.00 0.00 0.00 78 1010.7
20260505033046 73 0 0.0 4.0 0.00 0.00 0.00 78 1010.8
20260505031555 73 0 0.0 5.0 0.00 0.00 0.00 78 1011.0
20260505030100 74 0 0.0 5.0 0.00 0.00 0.00 77 1010.7
20260505024550 74 0 0.0 13.0 0.00 0.00 0.00 76 1010.6
20260505023047 75 0 0.0 5.0 0.00 0.00 0.00 75 1010.5
20260505021541 75 109 1.0 10.0 0.00 0.00 0.00 74 1010.4
20260505020050 75 0 0.0 4.0 0.00 0.00 0.00 75 1010.4
20260505014601 75 0 0.0 4.0 0.00 0.00 0.00 75 1010.2
20260505013044 75 0 0.0 4.0 0.00 0.00 0.00 75 1010.1
20260505011549 75 0 0.0 3.0 0.00 0.00 0.00 74 1009.7
20260505010041 76 0 0.0 4.0 0.00 0.00 0.00 73 1010.0
20260505004554 76 0 0.0 2.0 0.00 0.00 0.00 72 1009.9
20260505003044 77 0 0.0 4.0 0.00 0.00 0.00 70 1009.7
20260505001545 78 115 0.0 6.0 0.00 0.00 0.00 69 1009.8
20260505000047 78 0 0.0 2.0 0.00 0.00 0.00 68 1010.1
20260504234541 78 112 0.0 6.0 0.00 0.00 0.00 69 1010.0
20260504233046 79 0 0.0 7.0 0.00 0.00 0.00 67 1010.1
20260504231544 80 0 0.0 4.0 0.00 0.00 0.00 67 1010.2
20260504230053 80 0 0.0 4.0 0.00 0.00 0.00 64 1010.5
20260504224551 80 120 0.0 6.0 0.00 0.00 0.00 64 1010.5
20260504223047 80 0 0.0 4.0 0.00 0.00 0.00 64 1010.7
20260504221546 81 151 0.0 5.0 0.00 0.00 0.00 63 1010.9
20260504220052 81 0 0.0 4.0 0.00 0.00 0.00 63 1011.0
20260504214552 82 0 0.0 2.0 0.00 0.00 0.00 62 1011.0
20260504213058 82 0 0.0 2.0 0.00 0.00 0.00 62 1011.3
20260504211547 82 0 0.0 4.0 0.00 0.00 0.00 60 1011.5
20260504210057 83 0 0.0 4.0 0.00 0.00 0.00 57 1011.7
20260504204558 84 0 0.0 3.0 0.00 0.00 0.00 56 1011.9
20260504203049 83 82 0.0 2.0 0.00 0.00 0.00 56 1012.1
20260504201547 82 0 0.0 3.0 0.00 0.00 0.00 59 1012.5
20260504200047 81 0 0.0 6.0 0.00 0.00 0.00 59 1012.8
20260504194545 81 168 0.0 3.0 0.00 0.00 0.00 60 1013.1
20260504193044 81 134 0.0 4.0 0.00 0.00 0.00 58 1013.1
20260504191553 81 0 0.0 5.0 0.00 0.00 0.00 58 1013.2
20260504190052 81 0 0.0 2.0 0.00 0.00 0.00 58 1013.6
20260504184546 81 0 0.0 2.0 0.00 0.00 0.00 62 1013.7
20260504183045 81 121 0.0 5.0 0.00 0.00 0.00 56 1013.9
20260504181550 81 0 0.0 5.0 0.00 0.00 0.00 56 1013.9
20260504180106 80 140 1.0 4.0 0.00 0.00 0.00 59 1014.2
20260504174547 80 0 0.0 4.0 0.00 0.00 0.00 59 1014.3
20260504173058 79 0 0.0 4.0 0.00 0.00 0.00 61 1014.3
20260504171543 79 0 0.0 6.0 0.00 0.00 0.00 60 1014.5